Litchfield, MN

6:54 PM CDT on October 21, 2017 (GMT -0500)
Litchfield Municipal

Weather History for KLJF - November, 2012

Change the Weather History Date:

Wednesday, November 7, 2012

  Actual Average Record
Temperature  
Mean Temperature 42 °F -  
Max Temperature 50 °F 44 °F 67 °F (1975)
Min Temperature 35 °F 26 °F -4 °F (1991)
Degree Days  
Heating Degree Days 22    
Moisture  
Dew Point 36 °F    
Average Humidity 86    
Maximum Humidity 100    
Minimum Humidity 54    
Precipitation  
Precipitation 0.00 in - - ()
Sea Level Pressure  
Sea Level Pressure 30.05 in    
Wind  
Wind Speed 5 mph (SW)    
Max Wind Speed 10 mph    
Max Gust Speed -    
Visibility 10 miles    
Events      
Averages and records for this station are not official NWS values.
T = Trace of Precipitation, MM = Missing Value Source: NWS Daily Summary

Daily Weather History Graph

Daily Weather History Graph

Search for Another Location

Airport or City:

Trip Planner

Search our weather history database for the weather conditions in past years. The results will help you decide how hot, cold, wet, or windy it might be!

Date:

Astronomy

Nov. 07, 2012 Rise Set
Actual Time 7:05 AM CST 4:57 PM CST
Civil Twilight 6:34 AM CST 5:28 PM CST
Nautical Twilight 5:59 AM CST 6:03 PM CST
Astronomical Twilight 5:24 AM CST 6:37 PM CST
Moon No Moon Rise 1:23 PM CST (11/7)
Length of Visible Light 10h 53m
Length of Day
9h 51m
Last Quarter, 43% of the Moon is Illuminated
Nov 7
Last Quarter
Nov 13
New
Nov 20
First Quarter
Nov 28
Full
Dec 6
Last Quarter

Hourly Weather History & Observations

Time (CST) Temp. Windchill Dew Point Humidity Pressure Visibility Wind Dir Wind Speed Gust Speed Precip Events Conditions
12:13 AM 39.2 °F 32.5 °F 35.6 °F 87% 30.01 in 10.0 mi NNW 10.4 mph - N/A   Overcast
12:33 AM 37.4 °F 30.3 °F 35.6 °F 93% 30.01 in 10.0 mi NNW 10.4 mph - N/A   Overcast
12:53 AM 37.4 °F 30.8 °F 35.6 °F 93% 30.01 in 10.0 mi NNW 9.2 mph - N/A   Overcast
1:13 AM 37.4 °F 32.1 °F 35.6 °F 93% 30.02 in 10.0 mi NNW 6.9 mph - N/A   Overcast
1:33 AM 37.4 °F 31.4 °F 35.6 °F 93% 30.02 in 10.0 mi NNW 8.1 mph - N/A   Overcast
1:53 AM 37.4 °F 32.8 °F 35.6 °F 93% 30.03 in 10.0 mi NNW 5.8 mph - N/A   Overcast
2:13 AM 37.4 °F 32.1 °F 35.6 °F 93% 30.03 in 10.0 mi NNW 6.9 mph - N/A   Overcast
2:53 AM 37.4 °F 34.9 °F 35.6 °F 93% 30.04 in 10.0 mi NNW 3.5 mph - N/A   Overcast
3:13 AM 37.4 °F - 35.6 °F 93% 30.05 in 10.0 mi Calm Calm - N/A   Overcast
3:33 AM 37.4 °F 34.9 °F 35.6 °F 93% 30.05 in 10.0 mi WNW 3.5 mph - N/A   Overcast
3:53 AM 37.4 °F 34.9 °F 35.6 °F 93% 30.05 in 10.0 mi WNW 3.5 mph - N/A   Overcast
4:33 AM 37.4 °F 33.8 °F 35.6 °F 93% 30.07 in 10.0 mi WNW 4.6 mph - N/A   Overcast
4:53 AM 37.4 °F 33.8 °F 35.6 °F 93% 30.07 in 10.0 mi WNW 4.6 mph - N/A   Overcast
5:13 AM 37.4 °F 34.9 °F 35.6 °F 93% 30.07 in 10.0 mi NW 3.5 mph - N/A   Overcast
5:33 AM 37.4 °F 33.8 °F 35.6 °F 93% 30.07 in 10.0 mi NNW 4.6 mph - N/A   Overcast
5:53 AM 37.4 °F 33.8 °F 35.6 °F 93% 30.07 in 10.0 mi NNW 4.6 mph - N/A   Overcast
6:13 AM 37.4 °F 34.9 °F 35.6 °F 93% 30.07 in 10.0 mi NW 3.5 mph - N/A   Overcast
6:33 AM 37.4 °F - 35.6 °F 93% 30.08 in 10.0 mi Calm Calm - N/A   Overcast
6:53 AM 37.4 °F - 35.6 °F 93% 30.08 in 10.0 mi Calm Calm - N/A   Overcast
7:13 AM 37.4 °F - 35.6 °F 93% 30.09 in 10.0 mi Calm Calm - N/A   Overcast
7:33 AM 35.6 °F - 33.8 °F 93% 30.09 in 10.0 mi Calm Calm - N/A   Mostly Cloudy
7:53 AM 35.6 °F - 33.8 °F 93% 30.10 in 10.0 mi Calm Calm - N/A   Unknown
8:13 AM 35.6 °F - 35.6 °F 100% 30.10 in 10.0 mi Calm Calm - N/A   Unknown
8:33 AM 37.4 °F - 37.4 °F 100% 30.10 in 10.0 mi Calm Calm - N/A   Unknown
8:53 AM 39.2 °F - 35.6 °F 87% 30.10 in 10.0 mi Calm Calm - N/A   Clear
9:13 AM 42.8 °F 41.1 °F 39.2 °F 87% 30.11 in 10.0 mi West 3.5 mph - N/A   Scattered Clouds
9:33 AM 44.6 °F 43.1 °F 39.2 °F 81% 30.10 in 10.0 mi West 3.5 mph - N/A   Scattered Clouds
9:53 AM 44.6 °F 43.1 °F 37.4 °F 76% 30.11 in 10.0 mi West 3.5 mph - N/A   Scattered Clouds
10:13 AM 44.6 °F - 37.4 °F 76% 30.10 in 10.0 mi Calm Calm - N/A   Scattered Clouds
10:33 AM 44.6 °F - 37.4 °F 76% 30.11 in 10.0 mi Calm Calm - N/A   Scattered Clouds
10:53 AM 44.6 °F 43.1 °F 37.4 °F 76% 30.11 in 10.0 mi West 3.5 mph - N/A   Clear
11:13 AM 44.6 °F - 35.6 °F 71% 30.11 in 10.0 mi Calm Calm - N/A   Scattered Clouds
11:33 AM 44.6 °F - 37.4 °F 76% 30.10 in 10.0 mi Calm Calm - N/A   Clear
11:53 AM 48.2 °F - 37.4 °F 66% 30.09 in 10.0 mi West 4.6 mph - N/A   Mostly Cloudy
12:13 PM 48.2 °F - 35.6 °F 62% 30.08 in 10.0 mi West 3.5 mph - N/A   Overcast
12:33 PM 48.2 °F - 35.6 °F 62% 30.08 in 10.0 mi West 4.6 mph - N/A   Overcast
12:53 PM 46.4 °F 45.2 °F 33.8 °F 62% 30.07 in 10.0 mi West 3.5 mph - N/A   Overcast
1:13 PM 46.4 °F 44.3 °F 33.8 °F 62% 30.07 in 10.0 mi WSW 4.6 mph - N/A   Mostly Cloudy
1:33 PM 46.4 °F - 32.0 °F 57% 30.06 in 10.0 mi Calm Calm - N/A   Overcast
1:53 PM 46.4 °F 43.5 °F 33.8 °F 62% 30.06 in 10.0 mi West 5.8 mph - N/A   Overcast
2:13 PM 48.2 °F - 33.8 °F 58% 30.05 in 10.0 mi West 4.6 mph - N/A   Overcast
2:33 PM 46.4 °F - 33.8 °F 62% 30.05 in 10.0 mi Calm Calm - N/A   Overcast
2:53 PM 50.0 °F - 33.8 °F 54% 30.05 in 10.0 mi SW 4.6 mph - N/A   Overcast
3:13 PM 46.4 °F - 32.0 °F 57% 30.04 in 10.0 mi Calm Calm - N/A   Mostly Cloudy
3:38 PM 48.2 °F - 42.8 °F 82% 30.04 in 10.0 mi Calm Calm - N/A   Mostly Cloudy
3:53 PM 48.2 °F - 37.4 °F 66% 30.04 in 10.0 mi Calm Calm - N/A   Mostly Cloudy
4:13 PM 44.6 °F - 35.6 °F 71% 30.04 in 10.0 mi Calm Calm - N/A   Scattered Clouds
4:33 PM 42.8 °F - 37.4 °F 81% 30.04 in 10.0 mi Calm Calm - N/A   Clear
4:53 PM 42.8 °F 40.1 °F 37.4 °F 81% 30.04 in 10.0 mi SSE 4.6 mph - N/A   Clear
5:13 PM 41.0 °F 37.1 °F 37.4 °F 87% 30.03 in 10.0 mi SSE 5.8 mph - N/A   Clear
5:33 PM 41.0 °F 38.0 °F 37.4 °F 87% 30.03 in 10.0 mi SE 4.6 mph - N/A   Clear
5:53 PM 39.2 °F 35.9 °F 37.4 °F 93% 30.03 in 10.0 mi SSE 4.6 mph - N/A   Clear
6:13 PM 39.2 °F 35.9 °F 37.4 °F 93% 30.04 in 10.0 mi SE 4.6 mph - N/A   Clear
6:33 PM 39.2 °F 35.9 °F 37.4 °F 93% 30.04 in 10.0 mi SSE 4.6 mph - N/A   Clear
6:53 PM 37.4 °F 32.8 °F 37.4 °F 100% 30.04 in 10.0 mi SE 5.8 mph - N/A   Clear
7:13 PM 37.4 °F 32.1 °F 37.4 °F 100% 30.04 in 10.0 mi SE 6.9 mph - N/A   Clear
7:33 PM 37.4 °F 32.8 °F 37.4 °F 100% 30.03 in 10.0 mi SSE 5.8 mph - N/A   Clear
7:53 PM 37.4 °F 32.1 °F 37.4 °F 100% 30.02 in 10.0 mi SE 6.9 mph - N/A   Clear
8:13 PM 37.4 °F 32.8 °F 37.4 °F 100% 30.02 in 10.0 mi SSE 5.8 mph - N/A   Clear
8:33 PM 37.4 °F 33.8 °F 37.4 °F 100% 30.02 in 10.0 mi SSE 4.6 mph - N/A   Clear
8:53 PM 37.4 °F 32.1 °F 37.4 °F 100% 30.02 in 10.0 mi SSE 6.9 mph - N/A   Clear
9:13 PM 37.4 °F 31.4 °F 37.4 °F 100% 30.02 in 10.0 mi SSE 8.1 mph - N/A   Clear
9:33 PM 37.4 °F 32.1 °F 37.4 °F 100% 30.02 in 10.0 mi SSE 6.9 mph - N/A   Clear
9:53 PM 37.4 °F 32.8 °F 37.4 °F 100% 30.02 in 10.0 mi SSE 5.8 mph - N/A   Clear
10:13 PM 37.4 °F 32.1 °F 37.4 °F 100% 30.01 in 10.0 mi SSE 6.9 mph - N/A   Clear
10:33 PM 37.4 °F 32.8 °F 35.6 °F 93% 30.01 in 10.0 mi SSE 5.8 mph - N/A   Clear
10:53 PM 37.4 °F 34.9 °F 35.6 °F 93% 30.02 in 10.0 mi SSE 3.5 mph - N/A   Clear
11:13 PM 35.6 °F 30.7 °F 35.6 °F 100% 30.02 in 10.0 mi SSE 5.8 mph - N/A   Clear
11:33 PM 35.6 °F 30.7 °F 35.6 °F 100% 30.01 in 10.0 mi SSE 5.8 mph - N/A   Clear
11:53 PM 35.6 °F 29.9 °F 35.6 °F 100% 30.01 in 10.0 mi SSE 6.9 mph - N/A   Clear